Regional Weather Roundup
Issued by NWS Sioux Falls, SD

Home | Current Version | Previous Version | Graphics & Text | Print | Product List | Glossary On
Versions: 1 2 3 4 5 6 7 8 9 10 11 12 13 14 15 16 17 18 19 20 21 22 23 24 25 26 27 28 29 30 31 32 33 34 35 36 37 38 39 40 41 42 43 44 45 46 47 48 49 50
000
ASUS43 KFSD 060110
RWRFSD

WEATHER ROUNDUP FOR SE SOUTH DAKOTA/SW MINNESOTA/NW IOWA
NATIONAL WEATHER SERVICE SIOUX FALLS SD
800 PM CDT TUE MAY 05 2015

NOTE: "FAIR" INDICATES FEW OR NO CLOUDS BELOW 12,000 FEET WITH NO
SIGNIFICANT WEATHER AND OR OBSTRUCTIONS TO VISIBILITY.


SDZ038>040-050-052>070-060200-
SOUTHEAST SOUTH DAKOTA

CITY           SKY/WX    TMP DP  RH WIND       PRES   REMARKS
BROOKINGS      CLOUDY    64  57  77 SE12      30.00F
CHAMBERLAIN    CLOUDY    59  58  95 E7        29.91F FOG
HURON          CLOUDY    64  59  83 SE8       29.94S
MADISON        FAIR      64  57  77 SE12      29.99S
MITCHELL       CLOUDY    66  59  78 E6        29.94F
SIOUX FALLS    CLOUDY    66  58  75 E20       29.98S
WINNER         FAIR      62  57  83 SE14      29.90F HAZE
YANKTON        CLOUDY    72  57  60 SE14      29.93S
$$

MNZ071-072-080-081-089-090-097-098-060200-
SOUTHWEST MINNESOTA

CITY           SKY/WX    TMP DP  RH WIND       PRES   REMARKS
FAIRMONT       CLOUDY    57  50  77 E9        30.07R
JACKSON        CLOUDY    59  54  82 E15       30.07R FOG
LUVERNE        CLOUDY    63  57  82 E10G16    30.02S HAZE
MARSHALL       CLOUDY    61  52  72 SE16      30.03F
MONTEVIDEO     CLOUDY    61  54  77 S16       30.05S
REDWOOD FALLS  CLOUDY    59  53  80 SE16G23   30.06S
TRACY          CLOUDY    60  56  86 SE13      30.04F
WORTHINGTON    CLOUDY    61  55  82 E15       30.05R
$$

IAZ001>003-012>014-020>022-031-032-NEZ013-014-SDZ071-060200-
NORTHWEST IOWA

CITY           SKY/WX    TMP DP  RH WIND       PRES   REMARKS
CHEROKEE       CLOUDY    65  64  96 E13G18    30.01S FOG
DENISON        CLOUDY    70  61  73 SE7       29.99S
ESTHERVILLE    CLOUDY    57  56  96 SE15      30.06R FOG
LE MARS        CLOUDY    73  57  56 S8        29.99R
ORANGE CITY    HVY RAIN  64  61  88 E9G16     30.00R
SHELDON        CLOUDY    63  63 100 E20G26    30.00S
SIOUX CITY     CLOUDY    73  58  59 SE8       29.97S
SPENCER        CLOUDY    61  59  93 E15       30.04S FOG
STORM LAKE     CLOUDY    66  64  94 E14       30.03S FOG
$$

ABBREVIATIONS USED IN REMARKS
   TC - TEMPERATURE IN CELSIUS
  WCI - WIND CHILL INDEX
   HX - HEAT INDEX
  VSB - VISIBILITY



USA.gov is the U.S. government's official web portal to all federal, state and local government web resources and services.